Location: Arrien
(42.8963°N, 1.0429°E)
Time: 09:17:53
(UTC+00:00)

ISS - Pass Details

Date: 15 February 2026
Orbit: 416 x 426 km, 51.6° (Epoch: 9 March)

Event Time Altitude Azimuth Distance (km) Brightness Sun altitude
Exits shadow 04:35:26 23° 121° (ESE) 929 -1.5 -25.8°
Drops below altitude 10° 04:37:42 10° 80° (E) 1,492 0.1 -25.4°
Sets 04:40:02 0° 66° (ENE) 2,357 1.2 -25.0°
